User: anonymous   Login
Location: Sherrills_Ford_Terrell
(35.6000°N, 80.9830°W)
Time: 23:25:47
(UTC-05:00)
Language:

CZ-4B R/B - Orbit

View from above orbital plane
View from above orbital plane
View from above satellite
View from above satellite

Ground track
Ground track

The orbit data is extracted from the following two-line orbital elements,

1 29093U 06015B   17348.53121036 +.00002425 +00000-0 +56695-4 0  9997
2 29093 097.5100 104.1050 0062454 030.1819 330.3001 15.41210239645194
Epoch (UTC): 14 December 2017 12:44:56
Eccentricity: 0.0062454
inclination: 97.5100°
perigee height: 400 km
apogee height: 485 km
right ascension of ascending node: 104.1050°
argument of perigee: 30.1819°
revolutions per day: 15.41210239
mean anomaly at epoch: 330.3001°
orbit number at epoch: 64519

The dashed part of the orbit path shows where the satellite is in the earth's shadow,  

DLR